Weather History for New Bern, NC

Change the Weather History Date:

Wednesday, August 7, 2013

  Actual Average Record
Temperature  
Mean Temperature 79 °F 80 °F  
Max Temperature 88 °F 89 °F 98 °F (1968)
Min Temperature 69 °F 71 °F 56 °F (2004)
Degree Days  
Heating Degree Days 0 0  
Month to date heating degree days 0 0  
Since 1 June heating degree days 0 1  
Since 1 July heating degree days 0 0  
Cooling Degree Days 14 15  
Month to date cooling degree days 96 105  
Year to date cooling degree days 1278 1195  
Since 1 June cooling degree days 1022 952  
Growing Degree Days 28 (Base 50)    
Moisture  
Dew Point 70 °F    
Average Humidity 76    
Maximum Humidity 97    
Minimum Humidity 55    
Precipitation  
Precipitation 0.00 in 0.23 in 1.89 in (1992)
Month to date precipitation 2.18 1.56  
Year to date precipitation 25.47 31.71  
Snow  
Snow 0.00 in - - ()
Month to date snowfall 0.0  
Since 1 July snowfall 0.0  
Snow Depth 0.00 in    
Sea Level Pressure  
Sea Level Pressure 30.10 in    
Wind  
Wind Speed 5 mph (SE)    
Max Wind Speed 14 mph    
Max Gust Speed 24 mph    
Visibility 10 miles    
Events      
T = Trace of Precipitation, MM = Missing Value Source: NWS Daily Summary

Daily Weather History Graph

Daily Weather History Graph

Search for Another Location

Airport:

Trip Planner

Search our weather history database for the weather conditions in past years. The results will help you decide how hot, cold, wet, or windy it might be!

Date:

Astronomy

Aug. 07, 2013 Rise Set
Actual Time 6:22 AM EDT 8:05 PM EDT
Civil Twilight 5:54 AM EDT 8:32 PM EDT
Nautical Twilight 5:21 AM EDT 9:05 PM EDT
Astronomical Twilight 4:46 AM EDT 9:40 PM EDT
Moon 7:04 AM EDT (8/7) 8:16 PM EDT (8/7)
Length of Visible Light 14h 37m
Length of Day
13h 42m
New Moon, 1% of the Moon is Illuminated
Aug 7
New Moon
Aug 14
First Quarter
Aug 20
Full
Aug 28
Last Quarter
Sep 5
New

Hourly Weather History & Observations

Time (EDT) Temp. Heat Index Dew Point Humidity Pressure Visibility Wind Dir Wind Speed Gust Speed Precip Events Conditions
12:54 AM 72.0 °F - 68.0 °F 87% 30.09 in 10.0 mi Calm Calm - N/A   Clear
1:54 AM 71.1 °F - 66.9 °F 87% 30.08 in 10.0 mi Calm Calm - N/A   Clear
2:54 AM 69.1 °F - 66.0 °F 90% 30.08 in 10.0 mi Calm Calm - N/A   Clear
3:54 AM 69.1 °F - 66.9 °F 93% 30.09 in 10.0 mi Calm Calm - N/A   Scattered Clouds
4:54 AM 72.0 °F - 68.0 °F 87% 30.09 in 10.0 mi Calm Calm - N/A   Overcast
5:54 AM 70.0 °F - 68.0 °F 93% 30.11 in 10.0 mi Calm Calm - N/A   Clear
7:54 AM 75.9 °F - 71.1 °F 85% 30.12 in 10.0 mi Calm Calm - N/A   Clear
8:54 AM 80.1 °F 83.2 °F 70.0 °F 71% 30.12 in 10.0 mi NE 3.5 mph - N/A   Clear
9:54 AM 82.9 °F 87.0 °F 70.0 °F 65% 30.13 in 10.0 mi Variable 6.9 mph - N/A   Clear
10:54 AM 84.9 °F 89.4 °F 70.0 °F 61% 30.12 in 10.0 mi East 6.9 mph - N/A   Clear
11:54 AM 86.0 °F 90.1 °F 69.1 °F 57% 30.12 in 10.0 mi SE 6.9 mph - N/A   Clear
12:54 PM 87.1 °F 91.3 °F 69.1 °F 55% 30.11 in 10.0 mi SSE 8.1 mph - N/A   Clear
1:54 PM 87.1 °F 92.0 °F 70.0 °F 57% 30.11 in 10.0 mi SE 9.2 mph - N/A   Scattered Clouds
2:54 PM 87.1 °F 92.8 °F 71.1 °F 59% 30.10 in 10.0 mi SE 10.4 mph - N/A   Mostly Cloudy
3:54 PM 86.0 °F 91.5 °F 71.1 °F 61% 30.08 in 10.0 mi SE 10.4 mph - N/A   Scattered Clouds
4:54 PM 84.9 °F 90.1 °F 71.1 °F 63% 30.08 in 10.0 mi South 12.7 mph 16.1 mph N/A   Scattered Clouds
5:54 PM 82.9 °F 87.5 °F 71.1 °F 67% 30.08 in 10.0 mi SSE 10.4 mph - N/A   Clear
6:54 PM 82.9 °F 87.5 °F 71.1 °F 67% 30.07 in 10.0 mi SE 6.9 mph - N/A   Clear
7:54 PM 81.0 °F 85.2 °F 72.0 °F 74% 30.07 in 10.0 mi SSE 5.8 mph - N/A   Clear
8:54 PM 79.0 °F - 71.1 °F 77% 30.08 in 10.0 mi SSE 4.6 mph - N/A   Clear
9:54 PM 78.1 °F - 72.0 °F 81% 30.09 in 10.0 mi SSE 3.5 mph - N/A   Clear
10:54 PM 77.0 °F - 72.0 °F 84% 30.10 in 10.0 mi Calm Calm - N/A   Clear
11:54 PM 77.0 °F - 72.0 °F 84% 30.09 in 10.0 mi Calm Calm - N/A   Clear